Retour au catalogue

DELTA 1 DEB

ActifSSO
NORAD 7019·DEBRIS·🇺🇸 United States

Lancé Nov 6, 1973 depuis Vandenberg Space Force Base

Loading…

Prochains Passages (prochaines 24 heures)

TLE

FraisSource: Space-Track

Époque: Sep 13, 2026, 21:16 UTC

1 07019U 73086K   26256.88647775 -.00000018  00000-0  19861-3 0  9992
2 07019 102.2126 272.1345 0066336  39.5733  29.6224 12.42818626395878

Suivez DELTA 1 DEB en temps réel avec AllMySat

Download on the App Store